Location: Apthorp Dam
(44.3084°N, 71.7462°W)
Time: 11:37:26
(UTC+00:00)

ARIANE 6 FM1 Upper Stage - Pass Details

Date: 14 October 2024
Orbit: 558 x 597 km, 62.0° (Epoch: 12 November)

Event Time Altitude Azimuth Distance (km) Brightness Sun altitude
Rises 00:52:24 0° 325° (NW) 2,829 7.0 -30.3°
Reaches altitude 10° 00:54:48 10° 334° (NNW) 1,930 5.9 -30.7°
Enters shadow 00:56:07 18° 344° (NNW) 1,486 5.1 -31.0°
